Dewpoint
69 66 68 67 67 66 66 66 67 67 66 65 64 64 63 63 63 63 63 63 62 59 57 57 55 56 54 54 54 54 54 55 55 55 56 56 54 55 54 54 55 54
66 66 66 66 65 66 66 66 67 66 66 66 65 64 64 63 62 62 61 60 61 58 56 56 56 55 54 53 54 55 54 55 56 55 56 56 55 54 55 55 55 55
66 66 66 65 64 66 67 66 67 67 66 66 66 65 64 63 62 60 61 61 61 64 62 60 58 54 52 53 55 56 56 56 55 56 55 55 54 55 55 55 54 54
64 65 65 65 66 66 66 66 67 66 66 66 65 65 65 65 62 61 62 61 61 59 58 57 56 52 52 52 55 54 55 55 54 56 55 55 55 55 55 55 55 55
63 62 64 65 65 65 65 65 65 65 65 65 66 65 64 62 61 60 60 60 61 58 56 58 54 52 53 53 55 55 55 54 54 55 54 54 55 56 54 54 54 54
62 61 61 61 63 64 64 64 64 64 64 64 63 62 62 60 59 57 58 57 58 58 57 57 51 52 54 54 55 55 56 54 54 55 53 53 53 54 53 54 54 53
63 62 62 60 61 62 63 64 64 64 64 64 61 61 60 60 59 58 56 55 54 55 53 52 51 54 55 54 55 55 54 54 53 53 52 52 53 53 52 54 53 51
62 62 61 61 61 61 62 62 62 63 64 62 61 60 60 60 59 58 58 57 56 53 51 52 49 51 53 54 53 53 54 54 54 53 52 52 52 51 52 52 53 52
60 61 61 61 62 62 61 59 59 61 61 61 60 60 61 60 59 58 57 55 53 52 52 50 48 48 51 53 53 52 50 53 54 52 52 52 52 51 49 50 50 51
60 60 61 61 60 60 60 59 59 58 58 59 59 59 59 60 59 57 55 55 55 55 52 48 46 48 49 53 52 50 49 49 52 53 52 51 51 49 48 49 49 49
60 59 59 59 59 59 60 59 59 59 58 57 57 57 57 59 59 58 57 56 55 52 50 46 46 48 50 52 52 52 52 51 51 50 51 50 51 50 50 48 48 48
56 58 58 59 58 58 59 59 58 58 57 57 56 55 56 56 57 57 56 54 52 51 49 49 51 52 50 49 50 52 54 53 53 52 50 49 49 49 49 50 50 48
54 55 56 58 58 58 58 57 58 58 56 55 55 55 54 54 54 54 56 55 52 53 53 52 52 53 53 53 53 52 52 52 54 53 52 52 50 49 49 49 48 48
53 54 55 55 55 56 55 56 55 56 55 56 55 55 55 53 52 53 54 52 53 53 53 54 54 53 55 55 54 54 53 53 52 52 52 51 52 51 51 50 50 48
52 53 53 53 53 53 54 54 53 53 52 52 53 53 53 52 51 51 51 51 51 53 52 53 55 54 55 55 54 53 53 53 53 52 52 51 51 50 50 50 50 49
49 51 51 51 51 52 52 52 51 52 52 50 50 50 51 51 51 51 50 51 51 51 51 53 53 54 53 52 51 52 52 51 51 51 51 51 51 50 49 48 48 48
48 49 49 49 50 50 51 49 50 52 51 51 51 51 51 49 49 48 49 50 49 49 50 52 52 51 52 46 45 47 48 48 48 47 46 47 47 48 48 48 48 47
46 47 47 47 49 47 49 49 50 50 49 50 52 51 52 52 52 50 50 50 50 48 49 50 51 49 45 44 43 43 46 48 46 46 46 47 47 47 47 47 47 47
44 45 46 46 46 48 49 50 49 49 49 49 49 50 49 48 47 47 48 48 48 45 46 47 48 47 43 43 42 41 42 46 44 45 44 44 45 47 46 45 46 46
44 44 46 47 48 47 48 47 46 46 47 47 47 47 47 47 47 47 46 45 45 45 44 44 45 46 41 42 42 41 40 41 43 43 43 43 43 43 43 44 45 45
43 44 45 46 46 46 47 45 45 46 45 45 45 44 44 44 43 44 44 45 45 44 44 45 45 42 41 41 40 40 40 41 43 43 42 42 42 42 42 42 42 43
42 42 44 43 43 43 43 43 43 44 43 44 43 43 43 43 43 43 43 43 43 44 44 44 44 41 40 40 40 40 40 44 42 42 42 41 42 42 42 42 43 43
42 41 43 43 43 42 41 42 42 42 42 41 41 41 40 40 41 41 41 41 41 42 43 43 44 42 40 40 40 39 41 42 42 41 41 42 42 43 43 43 43 42
40 39 40 40 41 40 41 42 42 42 42 42 41 40 40 40 40 39 40 41 41 40 40 40 40 41 39 39 40 40 43 42 40 40 41 42 41 42 41 41 41 46
40 40 40 41 40 41 43 42 41 41 41 41 41 40 40 39 38 37 37 38 39 39 42 41 39 39 38 38 39 39 43 43 40 40 40 41 41 41 42 42 42 44
41 41 43 44 42 42 42 42 42 41 41 41 41 38 37 37 37 37 38 38 39 39 39 39 39 40 40 38 39 39 40 44 41 40 40 41 41 40 39 41 41 43